Regional Weather Roundup
Issued by NWS Boston, MA

Current Version | Previous Version | Graphics & Text | Print | Product List | Glossary On
Versions: 1 2 3 4 5 6 7 8 9 10 11 12 13 14 15 16 17 18 19 20 21 22 23 24 25 26 27 28 29 30 31 32 33 34 35 36 37 38 39 40 41 42 43 44 45 46 47 48 49 50
000
ASUS41 KBOX 170710
RWRBOX

REGIONAL WEATHER ROUNDUP
NATIONAL WEATHER SERVICE BOSTON/NORTON MA
300 AM EDT FRI AUG 17 2018

NOTE:  "FAIR" INDICATES FEW OR NO CLOUDS BELOW 12,000 FEET WITH NO
SIGNIFICANT WEATHER AND/OR OBSTRUCTIONS TO VISIBILITY.

MAZALL-170800-
EASTERN MASSACHUSETTS

CITY           SKY/WX    TMP DP  RH WIND       PRES   REMARKS
BOSTON         FAIR      72  62  71 N5        30.08S
BEVERLY        FAIR      66  63  90 N3        30.09R
LAWRENCE       FAIR      71  62  73 CALM      30.12R
BEDFORD        FAIR      67  64  90 CALM      30.08R
BLUE HILL        N/A     70  59  68 NE9       30.09S
NORWOOD        FAIR      68  66  93 CALM      30.07S FOG
MARSHFIELD     FAIR      68  68 100 CALM      30.07S
PLYMOUTH       FAIR      70  67  90 CALM      30.08S
TAUNTON        FOG       67  66  97 CALM      30.07S VSB 1
NEW BEDFORD    FAIR      71  71 100 CALM      30.07R
$$

MAZALL-170800-
CAPE COD AND THE ISLANDS

CITY           SKY/WX    TMP DP  RH WIND       PRES   REMARKS
FALMOUTH       FAIR      68  68 100 CALM      30.09R
HYANNIS        FAIR      70  67  90 CALM      30.06S
CHATHAM        FAIR      71  68  90 NW3       30.08S
PROVINCETOWN   FAIR      65  63  93 CALM      30.08S
NANTUCKET      FAIR      72  71  97 CALM      30.07S
MARTHAS VNYRD  FAIR      69  68  96 CALM      30.07S
$$

MAZALL-170800-
CENTRAL AND WESTERN MASSACHUSETTS

CITY           SKY/WX    TMP DP  RH WIND       PRES   REMARKS
WORCESTER      FAIR      71  61  70 N6        30.12S
FITCHBURG      FAIR      67  65  93 CALM      30.11S
ORANGE         FOG       70  68  93 CALM      30.11S VSB 1/2
SPRINGFIELD    FAIR      68  67  98 CALM      30.07S FOG
WESTFIELD      FAIR      68  68 100 CALM      30.08S
NORTH ADAMS    FAIR      63  62  97 CALM      30.10S FOG
PITTSFIELD     FOG       67  65  93 CALM      30.11S VSB 1/4
$$

RIZALL-170800-
RHODE ISLAND

CITY           SKY/WX    TMP DP  RH WIND       PRES   REMARKS
PROVIDENCE     MOCLDY    75  72  90 NE3       30.08S
NEWPORT        MOCLDY    75  71  87 CALM      30.08R
BLOCK ISLAND   FAIR      73  70  90 W8        30.08S
SMITHFIELD     CLOUDY    71  69  93 VRB3      30.10R
WESTERLY       FAIR      72  71  97 CALM      30.08S
$$

CTZALL-170800-
CONNECTICUT

CITY           SKY/WX    TMP DP  RH WIND       PRES   REMARKS
BRADLEY INTL   FAIR      72  70  93 CALM      30.08R
HARTFORD       FAIR      72  70  93 CALM      30.07S FOG
BRIDGEPORT     FAIR      77  72  84 CALM      30.07S
DANBURY        FAIR      69  69 100 CALM      30.10S FOG
GROTON         FAIR      72  70  93 CALM      30.07R FOG
NEW HAVEN      FAIR      74  71  91 CALM      30.07S
CHESTER        FAIR      73  72  94 CALM      30.09S
MERIDEN        FAIR      70  68  93 CALM      30.07F
WILLIMANTIC    FAIR      70  70 100 N3        30.08S FOG
OXFORD         FAIR      71  69  93 CALM      30.11S
$$

MEZ002-015-021-024-NHZ003-005-008-011-012-014-VTZ005-008-170800-
NORTHERN NEW ENGLAND

CITY           SKY/WX    TMP DP  RH WIND       PRES   REMARKS
PORTLAND ME    FAIR      61  58  90 CALM      30.10S
BANGOR ME      FAIR      56  54  93 S3        30.10R
CONCORD NH     MOCLDY    63  62  97 CALM      30.11R
MANCHESTER NH  MOCLDY    71  67  87 CALM      30.09R
NASHUA NH      MOCLDY    68  68 100 NW3       30.11R
PORTSMOUTH NH  MOCLDY    64  58  81 NW3       30.08S
JAFFREY NH     FAIR      65  64  97 CALM      30.13S
KEENE NH       FAIR     N/A N/A N/A CALM      30.10S
BURLINGTON VT  FAIR      61  57  87 CALM      30.08S
MT. WASHINGTON PTCLDY    54   5  14 NW36        N/A
$$

NYZ052-076-170800-
EASTERN NEW YORK

CITY           SKY/WX    TMP DP  RH WIND       PRES   REMARKS
ALBANY         FAIR      71  65  81 CALM      30.08S
NEW YORK CITY  FAIR      83  69  62 SW6       30.07S
$$

ANZALL-170800-
MARINE OBSERVATIONS

STATION/POSITION TIME  TEMP    WIND        PRES    VSBY  WAVE
                       AIR SEA DIR/SP/G                  HT/PER
                 (UTC) (F)     (DEG/KT/KT) (MB)    (MI)  (FT/S)
BOSTON BUOY      0650   71 74   20/  6/  6 1017.7F         1/ 6
BUZZARDS BAY     0600   74     340/  4/  5 1018.8R
NANTUCKET SOUND  0650   78      30/  2/  4 1018.4R         1
MASS BAY-STELLWA 0604   71 69   30/  6/  6 1016.7S  1 7/8  1/ 8
ISLE OF SHOALS   0600   70      20/  9/ 10 1018.2R
S OF BLOCK IS    0643      77                N/A           3/ 6
$$

......................KEY.........................
  SKY/WX - SKY CONDITION/PRESENT WEATHER
  TMP    - TEMPERATURE IN FAHRENHEIT
  DWPT   - DEWPOINT IN FAHRENHEIT
  RH     - RELATIVE HUMIDITY IN PERCENT
  WIND   - DIRECTION AND SPEED IN MPH
  PRES   - MEAN SEA LEVEL PRESSURE IN INCHES OF HG
  WCI    - WIND CHILL INDEX
  VSB    - VISIBILITY IN MILES
  HX     - HEAT INDEX
  TC     - TEMPERATURE IN CELSIUS
  VRB    - VARIABLE WIND DIRECTION
  N/A    - NOT AVAILABLE



USA.gov is the U.S. government's official web portal to all federal, state and local government web resources and services.